TimeEDT,TemperatureF,Dew PointF,Humidity,Sea Level PressureIn,VisibilityMPH,Wind Direction,Wind SpeedMPH,Gust SpeedMPH,PrecipitationIn,Events,Conditions,WindDirDegrees,DateUTC
12:15 AM,62.6,57.2,82,29.98,10.0,South,5.8,-,N/A,,Scattered Clouds,180,2012-10-06 04:15:00
12:35 AM,62.6,57.2,82,29.97,10.0,South,4.6,-,N/A,,Scattered Clouds,180,2012-10-06 04:35:00
12:55 AM,62.6,57.2,82,29.98,10.0,South,4.6,-,N/A,,Mostly Cloudy,180,2012-10-06 04:55:00
1:15 AM,62.6,57.2,82,29.97,10.0,South,4.6,-,N/A,,Overcast,180,2012-10-06 05:15:00
1:35 AM,64.4,57.2,77,29.96,10.0,South,3.5,-,N/A,,Overcast,180,2012-10-06 05:35:00
1:55 AM,64.4,57.2,77,29.99,10.0,NW,8.1,-,N/A,,Overcast,320,2012-10-06 05:55:00
2:15 AM,62.6,55.4,77,30.01,10.0,NNW,18.4,23.0,N/A,,Mostly Cloudy,330,2012-10-06 06:15:00
2:35 AM,53.6,50.0,88,30.02,10.0,NNW,11.5,20.7,N/A,,Overcast,340,2012-10-06 06:35:00
2:55 AM,51.8,48.2,88,30.05,10.0,North,13.8,21.9,N/A,,Overcast,350,2012-10-06 06:55:00
3:15 AM,50.0,46.4,87,30.06,10.0,NNW,8.1,-,N/A,,Overcast,330,2012-10-06 07:15:00
3:35 AM,50.0,44.6,82,30.05,10.0,North,9.2,-,N/A,,Overcast,350,2012-10-06 07:35:00
3:55 AM,48.2,44.6,87,30.05,10.0,North,12.7,-,N/A,,Overcast,350,2012-10-06 07:55:00
4:15 AM,48.2,44.6,87,30.07,10.0,NW,6.9,-,N/A,Rain,Rain,320,2012-10-06 08:15:00
4:35 AM,46.4,44.6,93,30.08,10.0,WNW,5.8,-,N/A,,Drizzle,300,2012-10-06 08:35:00
4:55 AM,46.4,44.6,93,30.09,10.0,NW,5.8,-,N/A,Rain,Rain,320,2012-10-06 08:55:00
5:35 AM,46.4,44.6,93,30.10,10.0,WNW,4.6,-,N/A,Rain,Rain,300,2012-10-06 09:35:00
5:55 AM,46.4,44.6,93,30.10,10.0,NW,4.6,-,N/A,Rain,Light Rain,320,2012-10-06 09:55:00
6:35 AM,44.6,42.8,93,30.12,10.0,North,6.9,-,N/A,,Overcast,350,2012-10-06 10:35:00
6:55 AM,44.6,42.8,93,30.12,10.0,North,3.5,-,N/A,,Overcast,350,2012-10-06 10:55:00
7:15 AM,44.6,42.8,93,30.13,10.0,NNW,4.6,-,N/A,,Overcast,340,2012-10-06 11:15:00
7:55 AM,44.6,42.8,93,30.14,10.0,NNE,4.6,-,N/A,,Light Drizzle,20,2012-10-06 11:55:00
8:15 AM,44.6,42.8,93,30.14,10.0,North,5.8,-,N/A,,Overcast,360,2012-10-06 12:15:00
8:35 AM,44.6,42.8,93,30.15,10.0,North,4.6,-,N/A,,Overcast,360,2012-10-06 12:35:00
8:55 AM,44.6,42.8,93,30.15,10.0,North,6.9,-,N/A,,Overcast,360,2012-10-06 12:55:00
9:15 AM,44.6,41.0,87,30.16,10.0,North,8.1,-,N/A,,Overcast,360,2012-10-06 13:15:00
9:35 AM,44.6,41.0,87,30.16,10.0,NNE,6.9,-,N/A,,Overcast,20,2012-10-06 13:35:00
9:55 AM,44.6,41.0,87,30.17,10.0,North,8.1,-,N/A,,Overcast,360,2012-10-06 13:55:00
10:15 AM,44.6,41.0,87,30.18,10.0,North,5.8,-,N/A,,Overcast,360,2012-10-06 14:15:00
10:35 AM,44.6,41.0,87,30.18,10.0,North,9.2,-,N/A,,Overcast,350,2012-10-06 14:35:00
10:55 AM,44.6,41.0,87,30.18,10.0,NNW,8.1,-,N/A,,Overcast,340,2012-10-06 14:55:00
11:15 AM,46.4,41.0,81,30.19,10.0,NNW,4.6,-,N/A,,Overcast,340,2012-10-06 15:15:00
11:35 AM,46.4,41.0,81,30.18,10.0,North,4.6,-,N/A,,Overcast,10,2012-10-06 15:35:00
11:55 AM,48.2,41.0,76,30.18,10.0,North,4.6,-,N/A,,Mostly Cloudy,10,2012-10-06 15:55:00
12:15 PM,50.0,41.0,71,30.17,10.0,Calm,Calm,-,N/A,,Scattered Clouds,0,2012-10-06 16:15:00
12:35 PM,51.8,39.2,62,30.16,10.0,NE,3.5,-,N/A,,Scattered Clouds,50,2012-10-06 16:35:00
12:55 PM,53.6,39.2,58,30.16,10.0,ENE,6.9,-,N/A,,Scattered Clouds,60,2012-10-06 16:55:00
1:15 PM,53.6,37.4,54,30.15,10.0,NNE,5.8,-,N/A,,Clear,20,2012-10-06 17:15:00
1:35 PM,53.6,37.4,54,30.14,10.0,ENE,6.9,-,N/A,,Clear,70,2012-10-06 17:35:00
1:55 PM,55.4,37.4,51,30.13,10.0,NW,5.8,-,N/A,,Clear,320,2012-10-06 17:55:00
2:15 PM,55.4,35.6,47,30.12,10.0,NNE,8.1,-,N/A,,Clear,20,2012-10-06 18:15:00
2:35 PM,55.4,35.6,47,30.11,10.0,NE,9.2,-,N/A,,Clear,40,2012-10-06 18:35:00
2:55 PM,55.4,35.6,47,30.11,10.0,NE,4.6,-,N/A,,Clear,40,2012-10-06 18:55:00
3:15 PM,57.2,33.8,41,30.10,10.0,NNE,5.8,-,N/A,,Clear,30,2012-10-06 19:15:00
3:35 PM,57.2,33.8,41,30.10,10.0,NNE,6.9,-,N/A,,Clear,30,2012-10-06 19:35:00
3:55 PM,59.0,33.8,39,30.09,10.0,Calm,Calm,-,N/A,,Clear,0,2012-10-06 19:55:00
4:15 PM,59.0,32.0,36,30.10,10.0,NNW,4.6,-,N/A,,Clear,330,2012-10-06 20:15:00
4:35 PM,59.0,32.0,36,30.10,10.0,NNW,4.6,-,N/A,,Clear,330,2012-10-06 20:35:00
4:55 PM,59.0,32.0,36,30.09,10.0,NE,8.1,-,N/A,,Clear,50,2012-10-06 20:55:00
5:15 PM,59.0,32.0,36,30.09,10.0,North,8.1,-,N/A,,Clear,350,2012-10-06 21:15:00
5:35 PM,55.4,32.0,41,30.10,10.0,NNW,5.8,-,N/A,,Clear,340,2012-10-06 21:35:00
5:55 PM,55.4,32.0,41,30.10,10.0,North,6.9,-,N/A,,Clear,10,2012-10-06 21:55:00
6:15 PM,55.4,32.0,41,30.11,10.0,NNW,8.1,-,N/A,,Clear,330,2012-10-06 22:15:00
6:35 PM,55.4,32.0,41,30.10,10.0,North,4.6,-,N/A,,Clear,350,2012-10-06 22:35:00
6:55 PM,53.6,32.0,44,30.11,10.0,North,5.8,-,N/A,,Clear,360,2012-10-06 22:55:00
7:15 PM,53.6,32.0,44,30.12,10.0,Calm,Calm,-,N/A,,Clear,0,2012-10-06 23:15:00
7:35 PM,53.6,33.8,47,30.13,10.0,Calm,Calm,-,N/A,,Clear,0,2012-10-06 23:35:00
7:55 PM,50.0,37.4,62,30.13,10.0,Calm,Calm,-,N/A,,Clear,0,2012-10-06 23:55:00
8:15 PM,50.0,39.2,66,30.13,10.0,Calm,Calm,-,N/A,,Clear,0,2012-10-07 00:15:00
8:35 PM,48.2,41.0,76,30.13,10.0,Calm,Calm,-,N/A,,Clear,0,2012-10-07 00:35:00
8:55 PM,46.4,41.0,81,30.11,10.0,Calm,Calm,-,N/A,,Clear,0,2012-10-07 00:55:00
9:15 PM,46.4,41.0,81,30.10,10.0,Calm,Calm,-,N/A,,Scattered Clouds,0,2012-10-07 01:15:00
9:35 PM,48.2,39.2,71,30.13,10.0,NW,5.8,-,N/A,,Mostly Cloudy,320,2012-10-07 01:35:00
9:55 PM,50.0,37.4,62,30.13,10.0,North,3.5,-,N/A,,Mostly Cloudy,10,2012-10-07 01:55:00
10:15 PM,50.0,35.6,58,30.14,10.0,North,3.5,-,N/A,,Mostly Cloudy,10,2012-10-07 02:15:00
10:35 PM,50.0,35.6,58,30.13,10.0,North,4.6,-,N/A,,Overcast,10,2012-10-07 02:35:00
10:55 PM,51.8,33.8,50,30.14,10.0,North,5.8,-,N/A,,Overcast,10,2012-10-07 02:55:00
11:15 PM,50.0,33.8,54,30.14,10.0,NNE,4.6,-,N/A,,Overcast,30,2012-10-07 03:15:00
11:35 PM,50.0,33.8,54,30.13,10.0,NNE,5.8,-,N/A,,Overcast,30,2012-10-07 03:35:00
11:55 PM,50.0,35.6,58,30.13,10.0,NNE,4.6,-,N/A,,Overcast,30,2012-10-07 03:55:00